• In Hungary
  • List of Countries
  • For 7 days
  • Water Temperature
  • Satellite Maps
  • Weather Map
  • News
  • Weather Widgets
  • user-avatar
    Login

    Hourly Weather Molina de Segura

    Today, 14 November, Wednesday

    Time Temperature Precipitation Wind Pressure Humidity
    00:00 +16°C° 0 mm 2 mps 756 mmHg 87%
    01:00 +16°C° 0 mm 2 mps 756 mmHg 87%
    02:00 +16°C° 0 mm 2 mps 756 mmHg 87%
    03:00 +16°C° 0 mm 2 mps 756 mmHg 87%
    04:00 +16°C° 0.1 mm 2 mps 755 mmHg 87%
    05:00 +16°C° 0.1 mm 2 mps 755 mmHg 87%
    06:00 +16°C° 0.1 mm 2 mps 755 mmHg 87%
    07:00 +17°C° 0.1 mm 3 mps 755 mmHg 83%
    08:00 +17°C° 0.1 mm 3 mps 755 mmHg 80%
    09:00 +18°C° 0.1 mm 3 mps 755 mmHg 76%
    10:00 +19°C° 0 mm 4 mps 755 mmHg 72%
    11:00 +20°C° 0 mm 4 mps 755 mmHg 67%
    12:00 +21°C° 0 mm 5 mps 754 mmHg 63%
    13:00 +21°C° 0.1 mm 5 mps 754 mmHg 63%
    14:00 +21°C° 0.1 mm 5 mps 753 mmHg 64%
    15:00 +21°C° 0.1 mm 6 mps 753 mmHg 64%
    16:00 +20°C° 0.3 mm 5 mps 753 mmHg 69%
    17:00 +19°C° 0.3 mm 4 mps 753 mmHg 75%
    18:00 +18°C° 0.3 mm 4 mps 753 mmHg 80%
    19:00 +18°C° 0.1 mm 3 mps 753 mmHg 82%
    20:00 +17°C° 0.1 mm 3 mps 753 mmHg 84%
    21:00 +17°C° 0.1 mm 3 mps 753 mmHg 86%
    22:00 +17°C° 0.4 mm 3 mps 752 mmHg 87%
    23:00 +16°C° 0.4 mm 3 mps 752 mmHg 87%

    Tomorrow, 15 November, Thursday

    Time Temperature Precipitation Wind Pressure Humidity
    00:00 +16°C° 0.4 mm 3 mps 752 mmHg 88%
    01:00 +16°C° 0.9 mm 3 mps 752 mmHg 87%
    02:00 +16°C° 0.9 mm 3 mps 752 mmHg 87%
    03:00 +16°C° 0.9 mm 3 mps 751 mmHg 87%
    04:00 +16°C° 0.3 mm 3 mps 751 mmHg 88%
    05:00 +16°C° 0.3 mm 3 mps 751 mmHg 88%
    06:00 +16°C° 0.3 mm 3 mps 751 mmHg 89%
    07:00 +17°C° 0.2 mm 3 mps 751 mmHg 87%
    08:00 +17°C° 0.2 mm 3 mps 751 mmHg 84%
    09:00 +17°C° 0.2 mm 3 mps 752 mmHg 82%
    10:00 +18°C° 0.3 mm 3 mps 752 mmHg 78%
    11:00 +19°C° 0.3 mm 3 mps 752 mmHg 73%
    12:00 +20°C° 0.3 mm 3 mps 752 mmHg 69%
    13:00 +20°C° 0.3 mm 3 mps 751 mmHg 68%
    14:00 +20°C° 0.3 mm 3 mps 751 mmHg 66%
    15:00 +21°C° 0.3 mm 3 mps 751 mmHg 65%
    16:00 +20°C° 0.2 mm 3 mps 751 mmHg 70%
    17:00 +19°C° 0.2 mm 3 mps 752 mmHg 76%
    18:00 +18°C° 0.2 mm 3 mps 752 mmHg 81%
    19:00 +17°C° 0.1 mm 3 mps 752 mmHg 83%
    20:00 +17°C° 0.1 mm 3 mps 753 mmHg 84%
    21:00 +17°C° 0.1 mm 2 mps 753 mmHg 86%
    22:00 +16°C° 0 mm 2 mps 753 mmHg 86%
    23:00 +16°C° 0 mm 2 mps 753 mmHg 86%

    Day after tomorrow, 16 November, Friday

    Time Temperature Precipitation Wind Pressure Humidity
    00:00 +16°C° 0 mm 2 mps 753 mmHg 85%
    01:00 +16°C° 0 mm 2 mps 753 mmHg 86%
    02:00 +16°C° 0 mm 2 mps 752 mmHg 86%
    03:00 +15°C° 0 mm 2 mps 752 mmHg 87%
    04:00 +15°C° 0 mm 2 mps 752 mmHg 87%
    05:00 +14°C° 0 mm 3 mps 752 mmHg 87%
    06:00 +14°C° 0 mm 3 mps 752 mmHg 88%
    07:00 +16°C° 0 mm 3 mps 752 mmHg 83%
    08:00 +17°C° 0 mm 3 mps 753 mmHg 79%
    09:00 +18°C° 0 mm 3 mps 753 mmHg 75%
    10:00 +19°C° 0.2 mm 4 mps 753 mmHg 72%
    11:00 +19°C° 0.2 mm 5 mps 752 mmHg 69%
    12:00 +20°C° 0.2 mm 5 mps 752 mmHg 67%
    13:00 +20°C° 0.4 mm 6 mps 752 mmHg 67%
    14:00 +20°C° 0.4 mm 6 mps 752 mmHg 67%
    15:00 +20°C° 0.4 mm 6 mps 751 mmHg 67%
    16:00 +19°C° 0.1 mm 5 mps 751 mmHg 72%
    17:00 +17°C° 0.1 mm 5 mps 751 mmHg 78%
    18:00 +17°C° 0.1 mm 4 mps 751 mmHg 84%
    19:00 +17°C° 0.1 mm 3 mps 751 mmHg 86%
    20:00 +16°C° 0.1 mm 3 mps 752 mmHg 87%
    21:00 +16°C° 0.1 mm 3 mps 752 mmHg 89%
    22:00 +16°C° 0.1 mm 3 mps 752 mmHg 89%
    23:00 +16°C° 0.1 mm 3 mps 752 mmHg 89%

    17 November, Saturday

    Time Temperature Precipitation Wind Pressure Humidity
    00:00 +16°C° 0.1 mm 3 mps 751 mmHg 89%
    01:00 +16°C° 0.1 mm 3 mps 751 mmHg 88%
    02:00 +16°C° 0.1 mm 3 mps 751 mmHg 88%
    03:00 +16°C° 0.1 mm 3 mps 751 mmHg 88%
    04:00 +14°C° 0 mm 3 mps 751 mmHg 88%
    05:00 +14°C° 0 mm 3 mps 751 mmHg 88%
    06:00 +14°C° 0 mm 3 mps 751 mmHg 89%
    07:00 +16°C° 0 mm 3 mps 751 mmHg 84%
    08:00 +16°C° 0 mm 3 mps 751 mmHg 79%
    09:00 +17°C° 0 mm 4 mps 751 mmHg 74%
    10:00 +18°C° 0 mm 4 mps 751 mmHg 72%
    11:00 +18°C° 0 mm 4 mps 751 mmHg 70%
    12:00 +19°C° 0 mm 4 mps 751 mmHg 68%
    13:00 +19°C° 0.1 mm 4 mps 751 mmHg 67%
    14:00 +19°C° 0.1 mm 4 mps 750 mmHg 67%
    15:00 +19°C° 0.1 mm 4 mps 750 mmHg 66%
    16:00 +18°C° 0.1 mm 4 mps 750 mmHg 72%
    17:00 +17°C° 0.1 mm 3 mps 750 mmHg 78%
    18:00 +16°C° 0.1 mm 3 mps 750 mmHg 83%
    19:00 +16°C° 0.1 mm 3 mps 750 mmHg 85%
    20:00 +16°C° 0.1 mm 3 mps 750 mmHg 87%
    21:00 +14°C° 0.1 mm 3 mps 750 mmHg 89%
    22:00 +14°C° 0.1 mm 3 mps 750 mmHg 89%
    23:00 +14°C° 0.1 mm 3 mps 750 mmHg 90%

    18 November, Sunday

    Time Temperature Precipitation Wind Pressure Humidity
    00:00 +15°C° 0.1 mm 2 mps 749 mmHg 90%
    01:00 +15°C° 0.1 mm 2 mps 749 mmHg 90%
    02:00 +13°C° 0.1 mm 3 mps 749 mmHg 90%
    03:00 +13°C° 0.1 mm 3 mps 748 mmHg 90%
    04:00 +14°C° 0.1 mm 2 mps 748 mmHg 90%
    05:00 +15°C° 0.1 mm 2 mps 748 mmHg 90%
    06:00 +15°C° 0.1 mm 2 mps 748 mmHg 91%
    07:00 +14°C° 0.1 mm 3 mps 748 mmHg 88%
    08:00 +15°C° 0.1 mm 4 mps 748 mmHg 86%
    09:00 +15°C° 0.1 mm 4 mps 748 mmHg 83%
    10:00 +16°C° 0.1 mm 5 mps 748 mmHg 79%
    11:00 +16°C° 0.1 mm 5 mps 748 mmHg 75%
    12:00 +17°C° 0.1 mm 5 mps 747 mmHg 72%
    13:00 +17°C° 0.1 mm 6 mps 747 mmHg 72%
    14:00 +17°C° 0.1 mm 6 mps 747 mmHg 72%
    15:00 +17°C° 0.1 mm 6 mps 746 mmHg 72%
    16:00 +16°C° 0.1 mm 6 mps 746 mmHg 76%
    17:00 +15°C° 0.1 mm 5 mps 746 mmHg 81%
    18:00 +14°C° 0.1 mm 5 mps 746 mmHg 85%
    19:00 +14°C° 0.1 mm 5 mps 746 mmHg 85%
    20:00 +14°C° 0.1 mm 4 mps 746 mmHg 85%
    21:00 +14°C° 0.1 mm 4 mps 746 mmHg 85%
    22:00 +14°C° 0.2 mm 4 mps 746 mmHg 85%
    23:00 +14°C° 0.2 mm 4 mps 745 mmHg 85%

    19 November, Monday

    Time Temperature Precipitation Wind Pressure Humidity
    00:00 +14°C° 0.2 mm 4 mps 745 mmHg 86%
    01:00 +14°C° 0.7 mm 4 mps 744 mmHg 86%
    02:00 +14°C° 0.7 mm 5 mps 744 mmHg 86%
    03:00 +13°C° 0.7 mm 5 mps 744 mmHg 87%
    04:00 +13°C° 1.3 mm 5 mps 743 mmHg 86%
    05:00 +13°C° 1.3 mm 4 mps 743 mmHg 86%
    06:00 +13°C° 1.3 mm 4 mps 743 mmHg 86%
    07:00 +13°C° 1.3 mm 5 mps 743 mmHg 85%
    08:00 +13°C° 1.3 mm 5 mps 743 mmHg 84%
    09:00 +13°C° 1.3 mm 5 mps 744 mmHg 83%
    10:00 +13°C° 1 mm 5 mps 743 mmHg 81%
    11:00 +13°C° 1 mm 6 mps 743 mmHg 79%
    12:00 +14°C° 1 mm 6 mps 743 mmHg 78%
    13:00 +14°C° 0.7 mm 6 mps 743 mmHg 77%
    14:00 +14°C° 0.7 mm 6 mps 743 mmHg 77%
    15:00 +14°C° 0.7 mm 6 mps 743 mmHg 77%
    16:00 +14°C° 0.3 mm 6 mps 743 mmHg 78%
    17:00 +14°C° 0.3 mm 5 mps 743 mmHg 79%
    18:00 +13°C° 0.3 mm 5 mps 744 mmHg 80%
    19:00 +13°C° 0.2 mm 5 mps 744 mmHg 80%
    20:00 +13°C° 0.2 mm 5 mps 745 mmHg 80%
    21:00 +13°C° 0.2 mm 5 mps 745 mmHg 80%
    22:00 +13°C° 0.3 mm 5 mps 745 mmHg 80%
    23:00 +13°C° 0.3 mm 5 mps 746 mmHg 80%
    Show more